TimeEST,TemperatureF,Dew PointF,Humidity,Sea Level PressureIn,VisibilityMPH,Wind Direction,Wind SpeedMPH,Gust SpeedMPH,PrecipitationIn,Events,Conditions,WindDirDegrees,DateUTC
12:05 AM,55.4,51.8,88,29.82,9.0,SSW,15.0,25.3,0.00,,Overcast,200,2011-12-15 05:05:00
12:12 AM,55.4,51.8,88,29.83,9.0,SSW,16.1,26.5,0.00,Rain,Light Rain,200,2011-12-15 05:12:00
12:47 AM,55.4,51.8,88,29.82,5.0,SSW,16.1,23.0,0.03,Rain,Light Rain,210,2011-12-15 05:47:00
12:48 AM,55.0,51.1,86,29.83,5.0,SSW,16.1,23.0,0.04,Rain,Light Rain,210,2011-12-15 05:48:00
12:59 AM,55.4,51.8,88,29.82,4.0,SSW,15.0,27.6,0.03,Rain,Rain,200,2011-12-15 05:59:00
1:11 AM,55.4,51.8,88,29.80,5.0,SSW,16.1,23.0,0.05,Rain,Rain,200,2011-12-15 06:11:00
1:53 AM,55.9,52.0,87,29.77,6.0,SSW,17.3,24.2,0.10,Rain,Rain,200,2011-12-15 06:53:00
2:03 AM,55.4,51.8,88,29.77,10.0,SSW,18.4,26.5,0.01,Rain,Light Rain,200,2011-12-15 07:03:00
2:53 AM,55.9,52.0,87,29.76,5.0,SSW,17.3,24.2,0.01,Rain,Light Rain,210,2011-12-15 07:53:00
3:53 AM,55.9,53.1,90,29.74,4.0,SSW,18.4,24.2,0.07,Rain,Rain,210,2011-12-15 08:53:00
4:03 AM,55.4,53.6,94,29.72,2.5,SSW,16.1,25.3,0.03,Rain,Rain,210,2011-12-15 09:03:00
4:08 AM,55.4,53.6,94,29.73,4.0,SSW,16.1,-,0.03,Rain,Light Rain,210,2011-12-15 09:08:00
4:23 AM,55.4,53.6,94,29.72,8.0,SSW,17.3,25.3,0.04,Rain,Light Rain,210,2011-12-15 09:23:00
4:51 AM,55.4,53.6,94,29.71,7.0,SSW,17.3,29.9,0.05,Rain,Light Rain,210,2011-12-15 09:51:00
4:53 AM,55.9,53.1,90,29.72,8.0,SSW,15.0,29.9,0.05,Rain,Light Rain,210,2011-12-15 09:53:00
5:53 AM,55.9,53.1,90,29.72,3.0,SSW,18.4,26.5,0.01,Rain,Light Rain,210,2011-12-15 10:53:00
6:53 AM,55.9,53.1,90,29.70,3.0,SSW,19.6,29.9,0.02,Rain,Light Rain,210,2011-12-15 11:53:00
7:53 AM,57.0,53.1,87,29.70,8.0,SSW,18.4,26.5,0.01,Rain,Light Rain,210,2011-12-15 12:53:00
9:53 AM,57.0,54.0,89,29.70,10.0,SSW,13.8,23.0,0.02,,Overcast,210,2011-12-15 14:53:00
10:07 AM,57.2,53.6,88,29.70,10.0,SSW,13.8,-,N/A,,Overcast,210,2011-12-15 15:07:00
10:32 AM,59.0,53.6,82,29.70,8.0,WSW,17.3,38.0,0.00,Rain,Light Rain,240,2011-12-15 15:32:00
10:44 AM,57.2,53.6,88,29.70,10.0,WSW,10.4,19.6,0.00,Rain,Light Rain,250,2011-12-15 15:44:00
10:53 AM,57.9,52.0,81,29.70,10.0,WSW,10.4,19.6,0.00,Rain,Light Rain,240,2011-12-15 15:53:00
11:53 AM,55.0,48.9,80,29.72,5.0,West,8.1,21.9,0.02,Rain,Rain,260,2011-12-15 16:53:00
12:53 PM,53.1,43.0,69,29.75,10.0,West,16.1,28.8,0.01,,Overcast,260,2011-12-15 17:53:00
1:31 PM,51.8,42.8,71,29.76,10.0,West,12.7,26.5,N/A,,Overcast,260,2011-12-15 18:31:00
2:53 PM,46.9,37.0,68,29.81,10.0,West,11.5,25.3,N/A,,Overcast,260,2011-12-15 19:53:00
3:53 PM,46.0,34.0,63,29.85,10.0,West,9.2,27.6,N/A,,Overcast,270,2011-12-15 20:53:00
4:53 PM,44.1,33.1,65,29.88,10.0,West,11.5,21.9,N/A,,Overcast,260,2011-12-15 21:53:00
5:53 PM,42.1,30.9,65,29.93,10.0,West,9.2,26.5,N/A,,Overcast,270,2011-12-15 22:53:00
6:21 PM,42.8,30.2,61,29.93,10.0,West,13.8,25.3,N/A,,Overcast,270,2011-12-15 23:21:00
6:51 PM,41.0,30.2,65,29.95,10.0,WSW,12.7,29.9,N/A,,Overcast,250,2011-12-15 23:51:00
6:53 PM,41.0,30.9,67,29.96,10.0,West,16.1,31.1,N/A,,Overcast,260,2011-12-15 23:53:00
7:53 PM,37.9,28.9,70,30.02,10.0,West,15.0,29.9,N/A,,Overcast,260,2011-12-16 00:53:00
8:53 PM,37.0,25.0,62,30.06,10.0,WNW,12.7,26.5,N/A,,Overcast,290,2011-12-16 01:53:00
9:53 PM,37.0,24.1,59,30.09,10.0,West,9.2,26.5,N/A,,Overcast,270,2011-12-16 02:53:00
10:53 PM,36.0,25.0,64,30.12,10.0,West,10.4,17.3,N/A,,Overcast,260,2011-12-16 03:53:00
11:53 PM,36.0,25.0,64,30.15,10.0,WSW,9.2,19.6,N/A,,Overcast,250,2011-12-16 04:53:00